User: anonymous   Login
Location: Unspecified
(0.0000°N, 0.0000°E)
Time: 16:46:18
(UTC+02:00)
Language:

Sapphire - Orbit

View from above orbital plane
View from above orbital plane
View from above satellite
View from above satellite

Ground track
Ground track

The orbit data is extracted from the following two-line orbital elements,

1 26932U 01043D   17202.20206438 -.00000063 +00000-0 +76864-5 0  9993
2 26932 067.0567 005.8152 0009130 264.0078 095.9983 14.30253445825162
Epoch (UTC): 21 July 2017 04:50:58
Eccentricity: 0.0009130
inclination: 67.0567°
perigee height: 784 km
apogee height: 797 km
right ascension of ascending node: 5.8152°
argument of perigee: 264.0078°
revolutions per day: 14.30253445
mean anomaly at epoch: 95.9983°
orbit number at epoch: 82516

The dashed part of the orbit path shows where the satellite is in the earth's shadow,  

DLR